Regional Weather Roundup
Issued by NWS

Home | Current Version | Previous Version | Graphics & Text | Print | Product List | Glossary On
Versions: 1 2 3 4 5 6 7 8 9 10 11 12 13 14 15 16 17 18 19 20 21 22 23 24 25 26 27 28 29 30 31 32 33 34 35 36 37 38 39 40 41 42 43 44 45 46 47 48 49 50
000
ASUS43 KBIS 291410
RWRND

NORTH DAKOTA REGIONAL WEATHER ROUNDUP
NATIONAL WEATHER SERVICE BISMARCK ND
900 AM CDT MON MAY 29 2017

NOTE: "FAIR" INDICATES FEW OR NO CLOUDS BELOW 12,000 FEET WITH NO
SIGNIFICANT WEATHER AND/OR OBSTRUCTIONS TO VISIBILITY.


NDZ001>003-009>011-017-291500-
NORTHWEST NORTH DAKOTA

CITY           SKY/WX    TMP DP  RH WIND       PRES   REMARKS
WILLISTON      CLOUDY    53  41  63 NW18      30.13S
MINOT          CLOUDY    55  44  66 NW24G31   30.02R
MINOT AFB      CLOUDY    54  45  71 NW20G29   30.01R
$$

NDZ018>021-031>035-040>046-291500-
SOUTHWEST NORTH DAKOTA

CITY           SKY/WX    TMP DP  RH WIND       PRES   REMARKS
BISMARCK       FAIR      56  44  64 NW15G25   30.04R
DICKINSON      FAIR      51  38  60 NW14      30.10S
GARRISON         N/A     51  43  74 NW24      30.04R
HETTINGER ARPT SUNNY     54  41  61 NW14      30.13S
$$

NDZ004>008-012>016-024-026-027-054-291500-
NORTHEAST NORTH DAKOTA

CITY           SKY/WX    TMP DP  RH WIND       PRES   REMARKS
GRAND FORKS    LGT RAIN  51  48  89 N17       29.86R
GRND FRKS AFB  LGT RAIN  48  48 100 N10       29.87R
DEVILS LAKE    CLOUDY    51  47  86 NW17      29.92S
$$

NDZ022-023-025-028>030-036>039-047>053-291500-
SOUTHEAST NORTH DAKOTA

CITY           SKY/WX    TMP DP  RH WIND       PRES   REMARKS
FARGO          LGT RAIN  52  49  89 NW20      29.86R
JAMESTOWN      CLOUDY    51  46  83 NW18G24   29.92R
$$





USA.gov is the U.S. government's official web portal to all federal, state and local government web resources and services.